TIANWANG 1A (TW-1A)
1 40928U 15051D   19260.85918300  .00002350  00000-0  58498-4 0  9995
2 40928  97.1389 290.1347 0012580  99.1387 347.9368 15.41185598223218
LAPAN A2
1 40931U 15052B   19260.05938054  .00000679  00000-0  53744-5 0  9992
2 40931   5.9940 132.0905 0013665 353.3940   6.5949 14.76613531214641
LQSAT
1 40958U 15057A   19260.78823747 -.00000006 +00000-0 +67315-5 0  9992
2 40958 097.8911 327.4886 0017045 311.9656 048.0099 14.73088618212224
CHUBUSAT 2
1 41338U 16012B   19260.44857521  .00000294  00000-0  16098-4 0  9996
2 41338  31.0031 287.9908 0013816 282.3545  77.5544 15.00178928196559
CHUBUSAT 3
1 41339U 16012C   19260.47403005  .00000266  00000-0  13844-4 0  9999
2 41339  31.0115 285.8039 0013799 290.9128  69.0027 15.00352196196550
OUFTI-1
1 41458U 16025C   19260.82079535 +.00000918 +00000-0 +50270-4 0  9999
2 41458 098.1006 352.2987 0166961 050.9953 310.6005 15.06016759186284
E-STAR-2
1 41459U 16025D   19260.85924164  .00001375  00000-0  73680-4 0  9998
2 41459  98.1016 351.9475 0167835  52.3729 309.2541 15.05648489186269
AAUSAT 4
1 41460U 16025E   19260.78583182  .00001411  00000-0  73893-4 0  9990
2 41460  98.0956 353.3440 0157734  44.4074 316.9666 15.07605828186392
NUSAT 1
1 41557U 16033B   19260.85195516  .00000840  00000-0  34064-4 0  9996
2 41557  97.4160 347.8212 0013105 342.5598  17.5189 15.27370660184005
BEESAT 4
1 41619U 16040W   19260.69743882  .00000995  00000-0  44837-4 0  9990
2 41619  97.3592 321.1927 0012847  67.6234 292.6363 15.23295738167711
PRATHAM
1 41783U 16059A   19260.69953984 +.00000030 +00000-0 +15004-4 0  9992
2 41783 098.0588 318.2309 0034933 097.7563 262.7608 14.63008950158852
ALSAT 1N
1 41789U 16059G   19260.74718048  .00000044  00000-0  17251-4 0  9995
2 41789  98.0616 320.4716 0029560  86.7199 273.7371 14.64261339158975
NAYIF 1
1 42017U 17008BX  19260.67042236 +.00001066 +00000-0 +44647-4 0  9990
2 42017 097.3955 326.7992 0005718 193.3689 166.7399 15.25710116143796
MAX VALIER SAT
1 42778U 17036P   19260.71312808 +.00000621 +00000-0 +30090-4 0  9998
2 42778 097.3458 316.3369 0010645 263.6310 096.3714 15.22131748124083
